EW2649 Weather Reports


time (UTC)temp
C
wind
direction
speed
KPH
gust
KPH
rain 1hr
cm
rain 24hr
cm
rain mn
cm
humidity
%
barometer
mb
20260503210133 16 222 20.9 30.6 0.00 0.00 0.00 73 1008.7
20260503204554 15 246 17.7 30.6 0.00 0.00 0.00 74 1008.9
20260503203035 15 260 12.9 19.3 0.00 0.00 0.00 75 1009.1
20260503201605 15 218 12.9 22.5 0.00 0.00 0.00 75 1009.1
20260503200023 14 243 4.8 16.1 0.00 0.00 0.00 76 1009.3
20260503194617 15 165 9.7 19.3 0.00 0.00 0.00 74 1009.2
20260503193040 15 225 3.2 14.5 0.00 0.00 0.00 74 1009.3
20260503191631 15 178 11.3 19.3 0.00 0.00 0.00 74 1009.3
20260503190058 15 196 11.3 19.3 0.00 0.00 0.00 72 1009.3
20260503184507 15 198 6.4 16.1 0.00 0.00 0.00 72 1009.2
20260503183104 15 131 4.8 19.3 0.00 0.00 0.00 76 1009.2
20260503181521 15 306 8.0 17.7 0.00 0.00 0.00 74 1009.2
20260503180118 15 194 8.0 14.5 0.00 0.00 0.00 72 1009.1
20260503174535 15 290 6.4 14.5 0.00 0.00 0.00 76 1009.1
20260503173132 13 196 1.6 12.9 0.00 0.00 0.00 81 1009.1
20260503171545 13 196 6.4 16.1 0.00 0.00 0.00 80 1009.2
20260503140114 11 146 1.6 4.8 0.00 0.00 0.00 90 1008.2
20260503100120 11 101 0.0 3.2 0.00 0.00 0.00 85 1007.5
20260503081619 11 194 1.6 4.8 0.00 0.00 0.00 87 1008.4
20260503071501 11 173 0.0 1.6 0.00 0.00 0.00 88 1008.5
20260503060119 11 88 0.0 4.8 0.00 0.00 0.00 84 1008.6
20260503054551 11 89 3.2 4.8 0.00 0.00 0.00 84 1008.7
20260503053128 11 128 0.0 0.0 0.00 0.00 0.00 84 1008.8
20260503051547 11 127 1.6 4.8 0.00 0.00 0.00 83 1008.8
20260503050003 12 315 4.8 11.3 0.00 0.00 0.00 82 1008.7
20260503044558 12 262 3.2 9.7 0.00 0.00 0.00 82 1008.7
20260503043025 12 178 0.0 3.2 0.00 0.00 0.00 83 1008.6
20260503041618 12 207 0.0 3.2 0.00 0.00 0.00 82 1008.5
20260503040038 12 207 1.6 3.2 0.00 0.00 0.00 82 1008.2
20260503034627 12 207 0.0 4.8 0.00 0.00 0.00 81 1008.1
20260503033046 12 250 0.0 1.6 0.00 0.00 0.00 81 1008.0
20260503031509 12 249 1.6 8.0 0.00 0.00 0.00 81 1007.8
20260503030058 12 242 3.2 9.7 0.00 0.00 0.00 80 1007.6
20260503024518 12 256 6.4 11.3 0.00 0.00 0.00 80 1007.4
20260503023111 12 231 3.2 11.3 0.00 0.00 0.00 80 1007.3
20260503021534 13 245 8.0 16.1 0.00 0.00 0.00 80 1007.2
20260503020131 13 263 9.7 17.7 0.00 0.00 0.00 79 1007.2
20260503014553 13 278 4.8 12.9 0.00 0.00 0.00 78 1007.3
20260503013009 14 215 6.4 14.5 0.00 0.00 0.00 78 1007.2
20260503011609 14 238 12.9 24.1 0.00 0.00 0.00 77 1007.2
20260503010029 15 242 14.5 19.3 0.00 0.00 0.00 76 1007.2
20260503004619 15 249 9.7 22.5 0.00 0.00 0.00 76 1007.1
20260503003042 15 237 12.9 22.5 0.00 0.00 0.00 76 1007.2
20260503001502 15 276 11.3 24.1 0.00 0.00 0.00 76 1007.3
20260502234524 16 263 12.9 20.9 0.00 0.00 0.00 75 1007.3
20260502233112 16 273 11.3 27.4 0.00 0.00 0.00 76 1007.5
20260502231526 16 244 17.7 27.4 0.00 0.00 0.00 75 1007.5
20260502230119 16 210 14.5 25.7 0.00 0.00 0.00 74 1007.8
20260502224536 16 275 12.9 29.0 0.00 0.00 0.00 74 1007.9
20260502223132 16 227 12.9 20.9 0.00 0.00 0.00 74 1008.2
20260502221548 16 257 12.9 24.1 0.00 0.00 0.00 76 1008.4
20260502220012 16 236 16.1 30.6 0.00 0.00 0.00 75 1008.7
20260502214558 16 245 16.1 30.6 0.00 0.00 0.00 76 1008.8
20260502213016 16 239 12.9 25.7 0.00 0.00 0.00 76 1008.9
20260502211610 16 204 14.5 25.7 0.00 0.00 0.00 76 1009.0